[[{"header":{"parameterUnit":"m.s-1","parameterCategory":1,"la1":30.2991,"la2":30.254,"lo1":-89.0895,"lo2":-89.0444,"dy":0.0017,"dx":0.0017,"nx":28,"ny":28,"refTime":"2024-04-19T03:00:00:Z","depth":0,"parameterNumber":2,"parameterNumberName":"U-component_of_WINDS"},"data":[0,0,0,0,0,0,0,0,0,0,0,0,0,0,0,0,0,0,0,0,0,0,0,0,0,0,0,0,0,0,0,0,0,0,0,0,0,0,0,0,0,0,0,0,0,0,0,0,0,0,0,0,0,0,0,0,0,0,-1.1301,-1.13,0,-1.1216,-1.1215,-1.1214,-1.1147,-1.1146,-1.1145,-1.1145,-1.1057,-1.1055,-1.1054,0,0,0,0,0,0,0,0,0,0,0,0,0,-1.1405,-1.1404,-1.1301,-1.13,-1.1299,-1.1217,-1.1215,-1.1214,-1.1147,-1.1146,-1.1145,-1.1144,-1.1058,-1.1056,-1.1054,0,0,0,0,0,0,0,0,0,0,0,0,0,-1.1344,-1.1403,-1.1301,-1.1256,-1.1251,-1.1217,-1.1215,-1.1214,-1.1147,-1.1146,-1.1145,-1.1144,-1.1058,-1.1056,-1.1053,-1.1058,0,0,-1.1045,-1.1044,0,0,0,0,0,0,0,0,-1.1348,-1.1341,-1.1263,-1.1259,-1.1253,-1.1191,-1.122,-1.1162,-1.1147,-1.1186,-1.1145,-1.1144,-1.1102,-1.1096,-1.1082,-1.1054,-1.105,-1.1045,-1.1044,-1.1043,-1.1042,0,0,0,0,0,0,0,-1.1352,-1.1344,-1.1268,-1.1262,-1.1256,-1.1239,-1.123,-1.1209,-1.1151,-1.1183,-1.1178,-1.1169,-1.1099,-1.1085,-1.108,-1.1049,-1.1045,-1.1043,-1.1041,-1.104,-1.1021,-1.1022,0,0,0,0,0,0,-1.1364,-1.1348,-1.127,-1.1265,-1.1299,-1.1238,-1.1227,-1.1212,-1.1151,-1.1141,-1.117,-1.1166,-1.109,-1.1083,-1.1077,-1.1078,-1.1043,-1.104,-1.1039,-1.102,-1.1021,-1.1022,0,0,0,0,0,0,-1.1366,-1.1357,-1.1274,-1.1305,-1.1293,-1.1238,-1.1221,-1.1211,-1.1196,-1.1141,-1.1131,-1.1166,-1.1089,-1.108,-1.1063,-1.1074,-1.1039,-1.1037,-1.1019,-1.102,-1.1021,-1.1082,0,0,0,0,0,0,-1.1369,-1.1359,-1.136,-1.1306,-1.1292,-1.1262,-1.1222,-1.121,-1.1192,-1.1187,-1.1134,-1.1125,-1.1087,-1.1068,-1.1061,-1.107,-1.1035,-1.1017,-1.1019,-1.1021,-1.1079,-1.1086,-1.1091,0,0,0,0,0,-1.1373,-1.138,-1.136,-1.1351,-1.1292,-1.1263,-1.1255,-1.1212,-1.1194,-1.1194,-1.1159,-1.1127,-1.1075,-1.1066,-1.1058,-1.1067,-1.1016,-1.1019,-1.1021,-1.1076,-1.1084,-1.1091,0,0,0,0,0,0,-1.1436,-1.1372,-1.1349,-1.1338,-1.1307,-1.1251,-1.1251,-1.1222,-1.1194,-1.119,-1.1138,-1.1126,-1.1116,-1.1089,-1.1082,-1.1069,-1.1041,-1.1042,-1.1086,-1.1093,-1.11,-1.1106,-1.1033,0,0,0,0,0,-1.1449,-1.143,-1.1375,-1.1371,-1.1356,-1.1307,-1.1292,-1.1262,-1.1227,-1.1213,-1.1176,-1.1144,-1.112,-1.1105,-1.108,-1.1075,-1.1063,-1.1078,-1.1084,-1.1089,-1.109,-1.1086,-1.1092,-1.1029,-1.1029,-1.1029,0,0,-1.1474,-1.1437,-1.1428,-1.1383,-1.1354,-1.1337,-1.1296,-1.1279,-1.1265,-1.121,-1.1192,-1.1165,-1.1125,-1.1114,-1.1108,-1.1092,-1.1105,-1.1092,-1.1097,-1.1095,-1.1089,-1.1095,-1.1101,-1.1031,-1.1031,-1.103,0,0,-1.1512,-1.1482,-1.1475,-1.1448,-1.1407,-1.1374,-1.1373,-1.1322,-1.1302,-1.1283,-1.1242,-1.1225,-1.1185,-1.1159,-1.114,-1.117,-1.1139,-1.1163,-1.1195,-1.1192,-1.1197,-1.1201,-1.1212,-1.1217,-1.1165,-1.1165,-1.1165,0,-1.1549,-1.1521,-1.1475,-1.1461,-1.1443,-1.1393,-1.1386,-1.1362,-1.1315,-1.1303,-1.1287,-1.1237,-1.1206,-1.1189,-1.1197,-1.1183,-1.118,-1.1169,-1.12,-1.1204,-1.1207,-1.1217,-1.1221,-1.1168,-1.1168,-1.1167,-1.1167,0,-1.1569,-1.155,-1.155,-1.1506,-1.1487,-1.1477,-1.143,-1.1417,-1.1389,-1.1358,-1.134,-1.1302,-1.1269,-1.1263,-1.1235,-1.1243,-1.1234,-1.121,-1.1181,-1.1217,-1.1225,-1.1229,-1.1173,-1.1172,-1.1171,-1.117,0,0,-1.1642,-1.1574,-1.1575,-1.1554,-1.1506,-1.149,-1.1479,-1.1447,-1.1437,-1.1406,-1.1395,-1.1363,-1.134,-1.1319,-1.1288,-1.1286,-1.1312,-1.1261,-1.126,-1.1272,-1.1318,-1.1337,-1.1342,-1.1292,-1.1293,-1.1293,-1.1322,0,-1.1672,-1.1647,-1.1607,-1.1595,-1.1578,-1.1532,-1.1521,-1.1491,-1.1462,-1.1443,-1.1411,-1.139,-1.1362,-1.1349,-1.1344,-1.131,-1.1321,-1.1307,-1.1281,-1.1281,-1.1292,-1.1346,-1.1365,-1.1394,-1.1325,-1.1325,-1.1325,0,-1.1703,-1.1676,-1.1663,-1.1616,-1.1607,-1.1599,-1.1567,-1.155,-1.1514,-1.1494,-1.1471,-1.1438,-1.1423,-1.1397,-1.1376,-1.1368,-1.1355,-1.1337,-1.1337,-1.1333,-1.1305,-1.1343,-1.1402,-1.1406,-1.133,-1.133,-1.1329,0,-1.1758,-1.1718,-1.1705,-1.169,-1.1635,-1.163,-1.1607,-1.1571,-1.1555,-1.1527,-1.1516,-1.1487,-1.1471,-1.145,-1.1409,-1.1395,-1.1393,-1.1364,-1.1376,-1.1377,-1.1377,-1.1377,-1.1435,-1.1369,-1.1369,-1.1369,-1.1369,0,-1.1796,-1.179,-1.173,-1.1722,-1.1714,-1.1668,-1.1662,-1.1635,-1.1603,-1.1589,-1.1548,-1.1536,-1.1483,-1.1465,-1.1434,-1.1422,-1.1415,-1.1398,-1.1389,-1.1401,-1.1403,-1.1391,-1.1388,-1.137,-1.137,-1.137,-1.137,0,-1.1855,-1.1815,-1.1798,-1.1748,-1.1736,-1.1732,-1.169,-1.1681,-1.165,-1.1633,-1.1627,-1.1579,-1.1556,-1.1514,-1.1479,-1.1457,-1.1452,-1.1437,-1.1464,-1.1459,-1.1473,-1.1472,-1.1524,-1.1529,-1.1461,-1.1462,-1.1463,0,-1.1882,-1.1876,-1.1826,-1.1814,-1.1793,-1.1774,-1.1758,-1.1713,-1.1698,-1.1658,-1.1654,-1.1628,-1.1604,-1.157,-1.1531,-1.1505,-1.1489,-1.1509,-1.1485,-1.1497,-1.1489,-1.149,-1.1489,-1.1515,-1.1516,-1.1516,-1.1517,0,-1.1933,-1.1914,-1.1892,-1.1863,-1.1845,-1.182,-1.1793,-1.1786,-1.1735,-1.172,-1.1697,-1.1679,-1.1643,-1.1618,-1.1586,-1.1562,-1.1531,-1.1525,-1.1527,-1.1538,-1.1554,-1.1546,-1.1479,-1.1524,-1.1523,-1.1523,-1.1523,-1.1522,-1.1977,-1.197,-1.1934,-1.1911,-1.1887,-1.1863,-1.1852,-1.1821,-1.18,-1.1768,-1.1743,-1.1722,-1.1687,-1.1641,-1.1619,-1.1602,-1.1587,-1.1589,-1.1589,-1.159,-1.1595,-1.1558,-1.1596,-1.1595,-1.1595,-1.1595,-1.1595,0,-1.2026,-1.2001,-1.198,-1.1944,-1.1927,-1.19,-1.1869,-1.1856,-1.1838,-1.1809,-1.1787,-1.176,-1.1736,-1.1696,-1.1669,-1.1662,-1.1648,-1.1657,-1.1656,-1.1652,-1.161,-1.1611,-1.1669,-1.1669,-1.1669,-1.1669,-1.1669,-1.1669,-1.2049,-1.2037,-1.2013,-1.1988,-1.1963,-1.1942,-1.1927,-1.1905,-1.1881,-1.1853,-1.1833,-1.1808,-1.1774,-1.1744,-1.1721,-1.171,-1.1701,-1.1715,-1.17,-1.1661,-1.1654,-1.1648,-1.1649,-1.1714,-1.1714,-1.1743,-1.1743,-1.1743]},{"header":{"parameterUnit":"m.s-1","parameterCategory":1,"la1":30.2991,"la2":30.254,"lo1":-89.0895,"lo2":-89.0444,"dy":0.0017,"dx":0.0017,"nx":28,"ny":28,"refTime":"2024-04-19T03:00:00:Z","depth":0,"parameterNumber":3,"parameterNumberName":"V-component_of_WINDS"},"data":[0,0,0,0,0,0,0,0,0,0,0,0,0,0,0,0,0,0,0,0,0,0,0,0,0,0,0,0,0,0,0,0,0,0,0,0,0,0,0,0,0,0,0,0,0,0,0,0,0,0,0,0,0,0,0,0,0,0,3.2669,3.2669,0,3.2655,3.2654,3.2654,3.2643,3.2643,3.2643,3.2643,3.2626,3.2626,3.2626,0,0,0,0,0,0,0,0,0,0,0,0,0,3.2685,3.2685,3.2669,3.2669,3.2669,3.2655,3.2654,3.2654,3.2643,3.2643,3.2643,3.2643,3.2626,3.2626,3.2625,0,0,0,0,0,0,0,0,0,0,0,0,0,3.2675,3.2685,3.2669,3.2661,3.2661,3.2655,3.2654,3.2654,3.2643,3.2643,3.2643,3.2643,3.2626,3.2626,3.2625,3.2625,0,0,3.2624,3.2624,0,0,0,0,0,0,0,0,3.2676,3.2674,3.2663,3.2662,3.2661,3.2651,3.2654,3.2644,3.2643,3.265,3.2643,3.2643,3.2634,3.2633,3.2631,3.2624,3.2624,3.2624,3.2623,3.2623,3.2623,0,0,0,0,0,0,0,3.2676,3.2675,3.2663,3.2662,3.2661,3.2658,3.2657,3.2652,3.2643,3.2649,3.2648,3.2647,3.2634,3.2631,3.263,3.2624,3.2624,3.2623,3.2623,3.2623,3.2617,3.2617,0,0,0,0,0,0,3.2678,3.2676,3.2664,3.2663,3.2668,3.2658,3.2656,3.2654,3.2643,3.2641,3.2647,3.2646,3.2632,3.2631,3.263,3.2629,3.2623,3.2623,3.2622,3.2617,3.2617,3.2617,0,0,0,0,0,0,3.2679,3.2677,3.2664,3.2669,3.2667,3.2658,3.2655,3.2654,3.2651,3.2641,3.264,3.2646,3.2632,3.263,3.2627,3.2628,3.2623,3.2622,3.2616,3.2617,3.2617,3.2627,0,0,0,0,0,0,3.2679,3.2678,3.2678,3.2669,3.2667,3.2662,3.2656,3.2654,3.2651,3.265,3.264,3.2638,3.2632,3.2627,3.2626,3.2627,3.2622,3.2616,3.2616,3.2617,3.2627,3.2628,3.2629,0,0,0,0,0,3.268,3.2681,3.2678,3.2676,3.2667,3.2662,3.2661,3.2654,3.2651,3.2651,3.2644,3.2639,3.2628,3.2627,3.2626,3.2626,3.2616,3.2616,3.2617,3.2626,3.2627,3.2628,0,0,0,0,0,0,3.2689,3.2679,3.2676,3.2674,3.2669,3.266,3.266,3.2655,3.265,3.2649,3.264,3.2638,3.2635,3.2631,3.263,3.2626,3.2621,3.2621,3.2629,3.263,3.2631,3.2632,3.2621,0,0,0,0,0,3.2691,3.2688,3.268,3.2679,3.2677,3.2669,3.2666,3.2662,3.2656,3.2653,3.2647,3.264,3.2636,3.2633,3.2628,3.2626,3.2624,3.2626,3.2627,3.2628,3.2628,3.2626,3.2627,3.2618,3.2618,3.2618,0,0,3.2694,3.2689,3.2688,3.2681,3.2676,3.2673,3.2667,3.2664,3.2662,3.2652,3.2649,3.2644,3.2636,3.2634,3.2632,3.2629,3.263,3.2628,3.2629,3.2628,3.2627,3.2628,3.2628,3.2618,3.2618,3.2618,0,0,3.27,3.2695,3.2694,3.269,3.2684,3.2678,3.2678,3.267,3.2667,3.2663,3.2656,3.2653,3.2645,3.264,3.2637,3.2641,3.2636,3.264,3.2645,3.2644,3.2644,3.2645,3.2646,3.2647,3.264,3.264,3.264,0,3.2705,3.27,3.2694,3.2692,3.2689,3.2681,3.268,3.2676,3.2668,3.2666,3.2664,3.2654,3.2648,3.2645,3.2646,3.2643,3.2642,3.264,3.2645,3.2645,3.2646,3.2647,3.2647,3.264,3.264,3.264,3.264,0,3.2707,3.2704,3.2704,3.2697,3.2694,3.2693,3.2686,3.2683,3.2679,3.2674,3.267,3.2664,3.2658,3.2656,3.2652,3.2652,3.2651,3.2647,3.2642,3.2647,3.2648,3.2649,3.2641,3.2641,3.2641,3.2641,0,0,3.2716,3.2707,3.2707,3.2704,3.2697,3.2694,3.2692,3.2687,3.2685,3.268,3.2678,3.2672,3.2668,3.2664,3.2659,3.2658,3.2662,3.2654,3.2654,3.2656,3.2662,3.2665,3.2665,3.2659,3.2659,3.2659,3.2662,0,3.272,3.2716,3.2711,3.2709,3.2706,3.2699,3.2697,3.2693,3.2688,3.2685,3.268,3.2676,3.2671,3.2669,3.2668,3.2662,3.2663,3.2662,3.2656,3.2656,3.2658,3.2666,3.2668,3.2672,3.2663,3.2663,3.2663,0,3.2724,3.272,3.2718,3.2711,3.271,3.2708,3.2703,3.27,3.2695,3.2691,3.2688,3.2682,3.2679,3.2676,3.2671,3.267,3.2668,3.2665,3.2665,3.2663,3.2659,3.2664,3.2673,3.2673,3.2663,3.2663,3.2663,0,3.273,3.2725,3.2723,3.2721,3.2713,3.2712,3.2709,3.2703,3.27,3.2696,3.2694,3.2689,3.2686,3.2682,3.2676,3.2674,3.2672,3.2668,3.2669,3.2669,3.2668,3.2668,3.2676,3.2667,3.2667,3.2667,3.2667,0,3.2735,3.2734,3.2726,3.2725,3.2723,3.2717,3.2716,3.2711,3.2707,3.2704,3.2698,3.2696,3.2688,3.2684,3.2679,3.2676,3.2675,3.2672,3.267,3.2672,3.2673,3.267,3.2669,3.2667,3.2667,3.2667,3.2667,0,3.2742,3.2737,3.2734,3.2728,3.2726,3.2725,3.2719,3.2717,3.2713,3.271,3.2709,3.2702,3.2698,3.2691,3.2685,3.2681,3.2679,3.2677,3.2681,3.268,3.2682,3.2681,3.2688,3.2688,3.268,3.268,3.268,0,3.2745,3.2744,3.2737,3.2736,3.2733,3.273,3.2728,3.2722,3.2719,3.2713,3.2712,3.2708,3.2704,3.2698,3.2691,3.2687,3.2684,3.2687,3.2683,3.2685,3.2684,3.2684,3.2683,3.2687,3.2687,3.2687,3.2688,0,3.275,3.2748,3.2745,3.2741,3.2739,3.2735,3.2732,3.2731,3.2724,3.2721,3.2717,3.2714,3.2709,3.2704,3.2699,3.2695,3.269,3.2689,3.2689,3.269,3.2693,3.2691,3.2683,3.2689,3.2688,3.2688,3.2688,3.2688,3.2755,3.2754,3.275,3.2747,3.2743,3.274,3.2739,3.2734,3.2731,3.2726,3.2723,3.2719,3.2714,3.2706,3.2703,3.27,3.2697,3.2697,3.2697,3.2697,3.2698,3.2694,3.2698,3.2698,3.2698,3.2698,3.2698,0,3.276,3.2757,3.2755,3.275,3.2748,3.2744,3.274,3.2738,3.2735,3.2731,3.2728,3.2724,3.2719,3.2713,3.2709,3.2707,3.2705,3.2706,3.2706,3.2705,3.27,3.27,3.2708,3.2708,3.2708,3.2708,3.2708,3.2708,3.2762,3.2761,3.2758,3.2755,3.2751,3.2748,3.2746,3.2743,3.274,3.2736,3.2733,3.2729,3.2724,3.2719,3.2715,3.2713,3.2712,3.2714,3.2711,3.2706,3.2706,3.2705,3.2705,3.2714,3.2714,3.2717,3.2717,3.2717]}]]